This is the latest recevied weather packets stored in our database for station/object M0HPP-13. If no packets are shown the sender has not sent any weather packets the latest 10 day(s).
| Time | Temp. | Humidity | Pressure | Rain* | Wind** | Luminosity | Snow |
|---|---|---|---|---|---|---|---|
| 1788364086 | 11.11° C | 81% | 1010.6 hPa | 0 mm | - | 95 W/m² | - |
| 1788363486 | 11.11° C | 82% | 1010.6 hPa | 0 mm | - | 80 W/m² | - |
| 1788362886 | 11.11° C | 82% | 1010.8 hPa | 0 mm | - | 60 W/m² | - |
| 1788362286 | 11.67° C | 80% | 1010.9 hPa | 0 mm | - | 53 W/m² | - |
| 1788361686 | 11.67° C | 79% | 1011 hPa | 0 mm | - | 97 W/m² | - |
| 1788361086 | 12.22° C | 78% | 1011 hPa | 0 mm | - | 173 W/m² | - |
| 1788360486 | 12.78° C | 76% | 1011 hPa | 0 mm | - | 228 W/m² | - |
| 1788359886 | 12.78° C | 77% | 1011.1 hPa | 0 mm | - | 338 W/m² | - |
| 1788359286 | 12.22° C | 77% | 1011.3 hPa | 0 mm | - | 383 W/m² | - |
| 1788358686 | 12.22° C | 75% | 1011.4 hPa | 0 mm | - | 192 W/m² | - |
| 1788358086 | 13.33° C | 73% | 1011.6 hPa | 0 mm | - | 326 W/m² | - |
| 1788357486 | 12.78° C | 74% | 1011.6 hPa | 0 mm | - | 461 W/m² | - |
| 1788356886 | 12.22° C | 75% | 1011.7 hPa | 0 mm | - | 316 W/m² | - |
| 1788356286 | 12.22° C | 75% | 1011.9 hPa | 0 mm | - | 216 W/m² | - |
| 1788355686 | 12.22° C | 74% | 1011.9 hPa | 0 mm | - | 220 W/m² | - |
| 1788355086 | 12.78° C | 72% | 1011.7 hPa | 0 mm | - | 259 W/m² | - |
| 1788353286 | 13.33° C | 71% | 1011.9 hPa | 0 mm | - | 541 W/m² | - |
| 1788352686 | 12.78° C | 71% | 1012 hPa | 0 mm | - | 548 W/m² | - |
| 1788352086 | 12.22° C | 72% | 1012.1 hPa | 0 mm | - | 479 W/m² | - |
| 1788351486 | 12.22° C | 73% | 1012.2 hPa | 0 mm | - | 331 W/m² | - |
| 1788350886 | 12.22° C | 74% | 1012.2 hPa | 0 mm | - | 302 W/m² | - |
| 1788350286 | 12.22° C | 73% | 1012.3 hPa | 0 mm | - | 176 W/m² | - |
| 1788349686 | 12.78° C | 72% | 1012.3 hPa | 0 mm | - | 248 W/m² | - |
| 1788349086 | 12.78° C | 71% | 1012.6 hPa | 0 mm | - | 392 W/m² | - |
| 1788348486 | 12.78° C | 72% | 1012.6 hPa | 0 mm | - | 340 W/m² | - |
* Rain latest hour (hover to see other rain measurements)
** Current wind speed in m/s (hover to see current wind gust speed)